STARLINK-5239 (54183 NORAD) Tracking and Keplerian Element Data

This shows tracking and keplerian element data for the satellite.

Feedback or suggestion? Click here.




ElementValue
Catalog54183
NameSTARLINK-5239
Epoch Orbit407
Epoch Day325.25001157
Epoch Year2022
RAAN24.103
Inclination53.2193
Eccentricity0.0003073
Argument of Perigee12.8858
Mean Anonmoly13.3642
Mean Motion15.73225253
Decay Rate-0.00073988
L11 54183U 22141AC 22325.25001157 -.00073988 00000+0 -52665-3 0 9999
L22 54183 53.2193 24.1030 0003073 12.8858 13.3642 15.73225253 4076



Live tracking and technical data element details for STARLINK-5239 (NORAD 54183). STARLINK-5239 can be tracked NOW for your location showing map with azimuth and elevation plus other details from your city location.







IsCatalogInMostPopularTable: catalog: 54183, numindb: 9
Update: records affected: 1



GetName: 54183 STARLINK-5239

Hit Count: updated at: Sun, 04 Dec 2022 22:57:32 GMT